﻿TIME_UTC_SECONDS;TIME_UTC_STR;AIR_TEMP;TRACK_TEMP;HUMIDITY;PRESSURE;WIND_SPEED;WIND_DIRECTION;RAIN;
1684652507;21/05/2023 07:01:47;12;16.5;81;998.138;0;360;-1;
1684652572;21/05/2023 07:02:52;12.0556;16.6;81;998.138;0;360;-1;
1684652637;21/05/2023 07:03:57;12.0556;16.6;81;998.138;2.12187;360;-1;
1684652702;21/05/2023 07:05:02;12.1667;16.7;81;998.104;0;360;-1;
1684652767;21/05/2023 07:06:07;12.1667;16.7;80;998.138;0;360;-1;
1684652832;21/05/2023 07:07:12;12.2222;16.8;80;998.172;1.06093;360;-1;
1684652897;21/05/2023 07:08:17;12.2222;16.9;80;998.172;0;360;-1;
1684652962;21/05/2023 07:09:22;12.2778;16.9;80;998.206;3.1828;360;-1;
1684653022;21/05/2023 07:10:22;12.2778;17;79;998.206;1.06093;360;-1;
1684653087;21/05/2023 07:11:27;12.2778;17;79;998.206;0;360;-1;
1684653152;21/05/2023 07:12:32;12.2222;17.1;79;998.138;2.12187;360;-1;
1684653217;21/05/2023 07:13:37;12.2778;17.2;80;998.138;1.06093;360;-1;
1684653282;21/05/2023 07:14:42;12.2778;17.3;80;998.206;1.06093;360;-1;
1684653342;21/05/2023 07:15:42;12.3333;17.4;80;998.206;0;360;-1;
1684653402;21/05/2023 07:16:42;12.3333;17.5;80;998.138;0;360;-1;
1684653467;21/05/2023 07:17:47;12.3889;17.5;80;998.172;0;360;-1;
1684653532;21/05/2023 07:18:52;12.3889;17.7;79;998.172;0;360;-1;
1684653597;21/05/2023 07:19:57;12.4444;17.7;79;998.172;0;360;-1;
1684653662;21/05/2023 07:21:02;12.5;17.8;79;998.206;0;360;-1;
1684653722;21/05/2023 07:22:02;12.5;17.9;79;998.138;0;360;-1;
1684653787;21/05/2023 07:23:07;12.5;18;79;998.206;0;360;-1;
1684653852;21/05/2023 07:24:12;12.5556;18.1;79;998.206;2.12187;360;-1;
1684653917;21/05/2023 07:25:17;12.5556;18.1;79;998.172;4.24374;360;-1;
1684653982;21/05/2023 07:26:22;12.6111;18.3;79;998.206;2.12187;360;-1;
1684654047;21/05/2023 07:27:27;12.5556;18.3;78;998.24;2.12187;360;-1;
1684654112;21/05/2023 07:28:32;12.6111;18.4;78;998.274;1.06093;360;-1;
1684654177;21/05/2023 07:29:37;12.6111;18.5;78;998.24;2.12187;360;-1;
1684654242;21/05/2023 07:30:42;12.6111;18.5;78;998.24;1.06093;360;-1;
1684654307;21/05/2023 07:31:47;12.6111;18.6;78;998.24;1.06093;360;-1;
1684654372;21/05/2023 07:32:52;12.6111;18.7;78;998.274;0;360;-1;
1684654432;21/05/2023 07:33:52;12.6667;18.8;79;998.307;3.1828;360;-1;
1684654497;21/05/2023 07:34:57;12.6667;18.9;78;998.307;0;360;-1;
1684654562;21/05/2023 07:36:02;12.7222;18.9;79;998.274;1.06093;360;-1;
1684654627;21/05/2023 07:37:07;12.7778;19;78;998.307;2.12187;360;-1;
1684654692;21/05/2023 07:38:12;12.7778;19.1;78;998.307;1.06093;360;-1;
1684654757;21/05/2023 07:39:17;12.8333;19.2;78;998.307;1.06093;360;-1;
1684654822;21/05/2023 07:40:22;12.8889;19.2;78;998.24;1.06093;360;-1;
1684654887;21/05/2023 07:41:27;12.9444;19.3;78;998.274;2.12187;360;-1;
1684654947;21/05/2023 07:42:27;13;19.4;78;998.307;0;360;-1;
1684655012;21/05/2023 07:43:32;13.0556;19.4;78;998.307;0;360;-1;
1684655077;21/05/2023 07:44:37;13.1111;19.5;78;998.307;1.06093;360;-1;
1684655142;21/05/2023 07:45:42;13.1667;19.6;78;998.206;0;360;-1;
1684655207;21/05/2023 07:46:47;13.1667;19.7;77;998.307;0;360;-1;
1684655272;21/05/2023 07:47:52;13.2222;19.7;77;998.274;0;360;-1;
1684655337;21/05/2023 07:48:57;13.2778;19.8;77;998.24;1.06093;360;-1;
